SRR335 LEBL-OMAA

Flight info

Callsign SRR335
Flight time N/A
Altitude 33000
Route LARPA N859 GENIO DCT LUXUR UM134 ANB UG6 DIMAO UL874 OMENI DCT SUDIK DCT BONAR M980 LOSUL M855 MMA P751 DASUM Y234 FYM M872 WEJ/N0488F350 M872 BDB Y214 RAPMA DCT KUVSO DCT KATIT DCT DANUX DCT TANSU/N0500F330 G783 VAVIM P899 ROVOS
Aircraft B77L/H-SDE1E2E3FGHIJ2J3J4J5M1RWXY/LB1D1

Departure

Time N/A
Airport Josep Tarradellas Barcelona-El Prat Airport (LEBL)

Arrival

Time 2026-05-06 22:22
Airport Zayed International Airport (OMAA)
Time Latitude Longitude Altitude Speed Heading
2026-05-06 22:02 22.89873 54.94271 34842 ft 525 kts 64°
2026-05-06 22:02 22.91434 54.97847 34849 ft 523 kts 64°
2026-05-06 22:03 22.94523 55.04933 34847 ft 521 kts 64°
2026-05-06 22:03 22.97619 55.12044 34856 ft 520 kts 64°
2026-05-06 22:04 23.00723 55.19116 34854 ft 515 kts 60°
2026-05-06 22:04 23.02768 55.22274 34859 ft 512 kts 44°
2026-05-06 22:04 23.05529 55.24686 34881 ft 510 kts 28°
2026-05-06 22:05 23.08777 55.26190 34864 ft 506 kts 11°
2026-05-06 22:05 23.12196 55.27001 34898 ft 504 kts
2026-05-06 22:05 23.19042 55.28855 34889 ft 514 kts 12°
2026-05-06 22:06 23.26052 55.29698 34478 ft 501 kts 351°
2026-05-06 22:06 23.29452 55.29095 34149 ft 491 kts 343°
2026-05-06 22:06 23.31617 55.28435 33923 ft 483 kts 337°
2026-05-06 22:07 23.34769 55.27213 33553 ft 479 kts 337°
2026-05-06 22:07 23.37926 55.26049 33051 ft 480 kts 338°
2026-05-06 22:07 23.42150 55.24565 32410 ft 481 kts 339°
2026-05-06 22:07 23.44307 55.23819 32012 ft 480 kts 339°
2026-05-06 22:08 23.47485 55.22721 31354 ft 479 kts 339°
2026-05-06 22:08 23.50622 55.21633 30650 ft 473 kts 339°
2026-05-06 22:08 23.53696 55.20566 29927 ft 455 kts 339°
2026-05-06 22:08 23.56659 55.19534 29118 ft 439 kts 339°
2026-05-06 22:09 23.59523 55.18532 28317 ft 424 kts 339°
2026-05-06 22:09 23.62283 55.17563 27557 ft 410 kts 339°
2026-05-06 22:09 23.64964 55.16619 26805 ft 399 kts 339°
2026-05-06 22:09 23.67571 55.15701 26028 ft 389 kts 339°
2026-05-06 22:10 23.70124 55.14800 25196 ft 383 kts 340°
2026-05-06 22:10 23.72641 55.13912 24320 ft 379 kts 340°
2026-05-06 22:10 23.75145 55.13028 23447 ft 376 kts 341°
2026-05-06 22:10 23.77631 55.12151 22419 ft 373 kts 341°
2026-05-06 22:11 23.80093 55.11283 21428 ft 370 kts 342°
2026-05-06 22:11 23.82536 55.10421 20474 ft 366 kts 342°
2026-05-06 22:11 23.84950 55.09569 19539 ft 363 kts 343°
2026-05-06 22:11 23.87320 55.08733 18641 ft 360 kts 343°
2026-05-06 22:12 23.89690 55.07897 17710 ft 356 kts 343°
2026-05-06 22:12 23.92030 55.07071 16845 ft 349 kts 343°
2026-05-06 22:12 23.94310 55.06265 16138 ft 338 kts 343°
2026-05-06 22:12 23.96523 55.05482 15388 ft 330 kts 344°
2026-05-06 22:13 23.98677 55.04720 14691 ft 322 kts 344°
2026-05-06 22:13 24.00788 55.03974 14002 ft 314 kts 345°
2026-05-06 22:13 24.02849 55.03245 13286 ft 308 kts 345°
2026-05-06 22:13 24.04869 55.02532 12541 ft 302 kts 344°
2026-05-06 22:14 24.06824 55.01841 11818 ft 296 kts 343°
2026-05-06 22:14 24.08767 55.01153 11078 ft 291 kts 343°
2026-05-06 22:14 24.10680 55.00475 10385 ft 287 kts 342°
2026-05-06 22:14 24.12568 54.99807 9693 ft 283 kts 342°
2026-05-06 22:15 24.14434 54.99146 8942 ft 280 kts 341°
2026-05-06 22:15 24.16278 54.98493 8215 ft 276 kts 341°
2026-05-06 22:15 24.18097 54.97848 7505 ft 273 kts 341°
2026-05-06 22:15 24.19893 54.97197 6795 ft 269 kts 337°
2026-05-06 22:16 24.21449 54.96115 6031 ft 264 kts 309°
2026-05-06 22:16 24.22428 54.94484 5364 ft 256 kts 298°
2026-05-06 22:16 24.23421 54.92877 4658 ft 255 kts 307°
2026-05-06 22:16 24.24542 54.91379 4079 ft 247 kts 308°
2026-05-06 22:17 24.25593 54.89956 3677 ft 235 kts 307°
2026-05-06 22:17 24.26590 54.88572 3253 ft 226 kts 307°
2026-05-06 22:17 24.27541 54.87244 3098 ft 216 kts 307°
2026-05-06 22:17 24.28430 54.85999 3038 ft 200 kts 307°
2026-05-06 22:18 24.29280 54.84804 3050 ft 199 kts 307°
2026-05-06 22:18 24.30124 54.83620 3029 ft 199 kts 307°
2026-05-06 22:18 24.30976 54.82425 3030 ft 199 kts 307°
2026-05-06 22:18 24.31829 54.81228 3045 ft 199 kts 307°
2026-05-06 22:19 24.32684 54.80030 3024 ft 199 kts 307°
2026-05-06 22:19 24.33536 54.78834 3026 ft 198 kts 307°
2026-05-06 22:19 24.34385 54.77642 3020 ft 199 kts 307°
2026-05-06 22:19 24.35232 54.76455 2762 ft 196 kts 307°
2026-05-06 22:20 24.36062 54.75290 2328 ft 189 kts 308°
2026-05-06 22:20 24.36847 54.74188 2119 ft 185 kts 307°
2026-05-06 22:20 24.37646 54.73065 1877 ft 190 kts 308°
2026-05-06 22:20 24.38456 54.71919 1415 ft 188 kts 308°
2026-05-06 22:21 24.39236 54.70805 1004 ft 179 kts 308°
2026-05-06 22:21 24.39982 54.69759 724 ft 170 kts 309°
2026-05-06 22:21 24.40730 54.68744 571 ft 174 kts 308°
2026-05-06 22:21 24.41470 54.67687 365 ft 174 kts 308°
2026-05-06 22:22 24.42211 54.66656 124 ft 171 kts 308°
2026-05-06 22:22 24.42888 54.65706 97 ft 127 kts 308°
2026-05-06 22:22 24.43291 54.65139 98 ft 68 kts 308°
2026-05-06 22:22 24.43396 54.64871 94 ft 30 kts 279°
2026-05-06 22:23 24.43418 54.64707 97 ft 16 kts 278°
2026-05-06 22:23 24.43440 54.64588 96 ft 16 kts 289°
2026-05-06 22:23 24.43454 54.64480 96 ft 14 kts 253°
2026-05-06 22:23 24.43394 54.64395 97 ft 14 kts 227°
2026-05-06 22:24 24.43373 54.64296 95 ft 14 kts 288°
2026-05-06 22:24 24.43427 54.64206 95 ft 14 kts 306°
2026-05-06 22:24 24.43489 54.64122 96 ft 14 kts 310°
2026-05-06 22:24 24.43550 54.64037 97 ft 14 kts 307°
2026-05-06 22:25 24.43610 54.63951 93 ft 14 kts 303°
2026-05-06 22:25 24.43591 54.63856 95 ft 14 kts 221°
2026-05-06 22:25 24.43526 54.63777 97 ft 14 kts 225°
2026-05-06 22:25 24.43498 54.63751 95 ft 0 kts 218°